Temp
58 58 58 57 58 58 58 58 58 58 58 58 58 58 58 57 57 56 56 56 57 57 57 57 58 60 61 61 61 62 63 64 65 65 66 66 66 67 67 68 68 67 65 65 67 66 65 64 63 62 62 58
57 57 57 57 57 57 57 57 57 57 57 57 57 57 56 56 55 55 56 55 56 56 56 56 57 58 59 59 60 60 60 60 62 64 64 65 65 65 66 67 67 66 66 66 66 65 64 64 62 61 62 56
53 57 57 57 57 57 56 56 56 56 56 56 55 55 55 55 54 54 54 54 55 55 54 54 55 57 58 58 59 60 60 60 61 60 63 64 63 63 64 65 67 66 65 65 65 65 64 63 61 61 60 57
52 54 56 56 56 56 56 56 56 56 55 54 54 54 54 54 52 52 52 54 52 53 53 52 52 55 56 57 58 58 59 60 59 60 61 62 62 62 62 63 63 65 65 65 65 65 64 61 61 57 56 57
51 52 54 53 55 55 55 55 55 55 54 53 52 53 53 52 51 50 50 51 51 52 51 52 52 53 54 55 56 57 57 58 60 60 60 60 61 60 60 60 61 62 65 65 64 64 62 60 57 55 56 57
50 50 52 50 50 50 52 53 54 52 51 52 49 52 51 50 51 50 51 50 51 50 51 51 52 52 54 55 55 55 55 55 58 60 60 59 59 59 58 58 56 59 61 62 63 61 60 58 54 54 55 56
49 50 50 49 49 49 52 51 51 50 51 49 49 49 50 51 50 50 50 51 50 50 52 51 52 52 53 54 53 54 53 54 56 58 59 59 58 58 57 54 54 54 56 58 60 59 59 56 54 54 55 55
48 48 48 48 48 49 49 49 49 49 50 50 49 48 49 49 50 50 50 52 52 51 50 50 52 52 51 52 52 53 50 52 52 55 56 57 58 54 53 53 53 53 53 56 56 57 56 55 54 54 55 55
46 47 47 47 47 47 48 47 48 48 48 49 49 48 49 49 49 49 49 49 49 50 50 49 49 49 49 49 48 52 47 47 49 48 49 52 53 51 50 51 52 51 52 53 56 55 55 55 55 54 57 51
47 46 45 45 46 47 47 46 47 47 47 48 50 49 49 48 47 49 49 48 47 48 49 49 49 49 49 48 48 50 48 47 47 47 47 49 52 52 51 50 50 52 51 51 52 54 53 55 56 54 53 52
46 45 45 44 45 45 45 45 45 45 46 47 48 49 49 47 47 48 48 48 48 47 48 48 49 49 49 48 48 50 48 47 48 47 47 45 49 51 52 51 50 50 52 51 51 51 53 53 55 53 52 52
45 45 45 45 45 44 45 44 43 44 45 46 47 47 47 48 47 47 47 47 47 47 48 47 48 49 48 48 47 49 48 47 47 47 46 47 47 48 52 51 51 50 49 51 50 50 51 52 55 54 53 53
43 43 43 43 43 43 46 43 43 43 45 45 46 47 46 46 44 45 46 46 46 47 47 47 47 48 48 48 48 48 47 47 47 46 46 46 47 49 49 51 50 50 50 49 49 50 49 50 52 55 55 54
42 42 41 42 42 43 43 41 42 43 43 44 44 44 45 45 44 43 43 43 44 45 45 46 46 47 48 48 48 49 47 46 46 45 45 45 46 47 48 48 49 50 50 51 48 49 48 48 49 50 52 54
42 42 41 41 42 42 41 41 42 41 42 42 42 44 43 43 44 44 42 42 42 42 42 44 45 46 47 47 47 49 48 47 46 45 45 45 44 45 46 47 48 49 49 50 50 48 48 47 46 47 48 49
41 41 41 41 41 41 41 42 41 41 41 42 42 42 42 42 42 43 42 42 42 42 41 41 42 44 45 46 47 48 47 47 47 46 45 45 46 45 45 46 47 48 48 49 50 51 47 46 46 46 46 46
41 40 40 40 40 40 41 41 41 40 41 41 41 41 41 41 42 42 41 41 41 41 41 41 41 41 43 45 47 47 47 47 47 47 45 45 45 45 45 45 45 46 47 47 49 49 49 47 46 45 45 46
40 40 40 41 40 41 40 40 40 40 40 41 41 40 40 39 40 40 40 39 39 40 40 40 40 40 40 42 43 45 46 45 46 46 45 45 44 45 45 43 44 43 44 45 46 47 48 48 48 47 45 45
40 39 38 38 39 39 37 39 38 38 40 40 40 41 40 39 39 39 38 39 38 38 39 39 39 40 40 41 42 41 41 42 43 44 45 46 44 44 43 43 43 43 43 43 44 45 46 46 46 47 45 45
39 39 37 36 39 38 36 37 36 37 38 38 40 40 39 40 40 39 38 38 38 37 37 38 38 39 41 40 40 39 40 41 39 41 43 45 45 44 43 43 42 42 42 43 44 44 44 45 45 44 45 42
37 38 37 37 37 37 36 35 35 35 37 37 37 38 38 39 39 38 38 38 38 37 36 37 37 39 40 41 39 37 38 38 39 39 40 41 44 45 44 44 42 42 42 42 44 44 43 44 45 43 40 42
38 38 39 37 36 38 36 36 35 36 36 35 35 36 37 38 38 39 38 38 38 37 38 37 37 38 39 39 38 37 36 37 39 39 39 38 41 42 43 42 42 42 42 42 43 42 43 43 42 43 41 40
40 39 39 38 37 36 36 35 35 35 35 34 35 34 35 36 38 38 37 37 37 36 37 37 38 37 37 37 37 36 36 37 37 38 38 37 38 40 40 40 42 44 44 43 43 42 42 43 43 43 42 42
37 37 37 36 35 35 36 36 35 35 34 35 33 35 34 35 36 37 38 37 37 36 36 36 36 36 36 35 35 34 34 35 36 35 36 36 37 36 38 39 40 42 42 42 42 42 43 41 41 41 42 43
35 34 35 35 34 33 33 34 36 36 36 35 34 34 34 33 35 35 36 37 35 35 36 35 35 34 34 34 34 33 33 35 35 37 37 37 38 37 36 36 38 38 40 40 38 38 38 40 40 41 43 42
35 34 32 32 34 35 33 32 32 32 34 35 36 35 35 35 34 34 35 36 36 36 35 33 33 33 32 32 31 32 34 35 36 36 36 36 35 36 35 34 35 38 38 34 34 34 34 37 39 39 41 40
31 32 33 32 33 34 34 35 35 35 35 35 34 35 35 35 35 35 34 34 35 35 34 33 32 32 32 32 32 31 30 31 32 33 33 34 34 32 34 36 38 37 37 32 33 34 36 32 34 36 36 39
32 32 32 33 33 33 33 32 35 35 35 34 34 33 35 34 34 34 33 33 33 34 33 33 32 32 31 30 31 31 30 30 31 32 32 33 34 34 31 31 33 37 38 36 32 27 28 30 34 31 31 35
30 30 29 30 31 31 30 30 30 29 29 31 32 33 32 33 33 33 32 32 32 32 32 32 32 30 30 30 30 31 30 30 30 31 32 34 33 33 32 32 32 35 36 35 38 31 31 24 27 25 29 33
27 27 26 26 25 24 24 24 25 25 26 28 28 29 32 31 32 31 31 32 31 32 32 31 31 30 30 30 30 30 29 30 30 30 31 33 34 33 34 34 34 30 35 36 37 38 37 34 25 27 28 29
26 25 25 24 24 24 24 23 25 27 29 28 29 29 29 29 30 30 30 31 31 30 31 30 30 29 28 27 27 28 28 27 28 30 31 32 32 33 35 34 32 32 32 33 35 36 37 38 37 32 31 20
MSLP
1024.14 1023.98 1023.82 1023.66 1023.46 1023.26 1022.98 1022.74 1022.54 1022.38 1022.34 1022.26 1022.14 1022.10 1022.10 1022.06 1022.10 1021.94 1021.86 1021.74 1021.46 1021.30 1021.14 1020.86 1020.62 1020.34 1020.06 1019.82 1019.70 1019.54 1019.22 1018.94 1018.74 1018.50 1018.38 1018.34 1018.34 1018.26 1018.10 1018.06 1018.14 1018.34 1018.74 1018.86 1018.82 1019.02 1019.10 1019.18 1019.30 1019.42 1019.42 1019.42
1024.42 1024.26 1024.10 1024.02 1023.86 1023.70 1023.46 1023.26 1023.06 1022.94 1022.86 1022.78 1022.70 1022.58 1022.54 1022.46 1022.42 1022.30 1022.18 1022.02 1021.86 1021.78 1021.62 1021.30 1021.14 1020.98 1020.66 1020.46 1020.14 1019.90 1019.78 1019.54 1019.22 1018.86 1018.66 1018.54 1018.54 1018.54 1018.38 1018.22 1018.22 1018.42 1018.54 1018.70 1018.86 1018.98 1019.06 1019.14 1019.26 1019.34 1019.46 1019.54
1024.90 1024.54 1024.38 1024.30 1024.14 1023.98 1023.82 1023.70 1023.58 1023.38 1023.30 1023.26 1023.18 1023.06 1022.90 1022.74 1022.70 1022.66 1022.54 1022.34 1022.18 1022.06 1022.14 1021.86 1021.58 1021.34 1021.18 1021.06 1020.74 1020.42 1020.18 1019.94 1019.70 1019.38 1019.02 1018.86 1018.82 1018.86 1018.78 1018.54 1018.34 1018.42 1018.62 1018.74 1018.82 1018.94 1019.06 1019.18 1019.30 1019.38 1019.50 1019.58
1025.38 1025.06 1024.82 1024.62 1024.42 1024.18 1024.18 1024.10 1023.94 1023.78 1023.74 1023.70 1023.50 1023.38 1023.22 1023.14 1023.10 1022.98 1022.86 1022.74 1022.66 1022.54 1022.42 1022.26 1022.22 1021.86 1021.58 1021.46 1021.18 1020.86 1020.58 1020.30 1020.14 1019.94 1019.54 1019.38 1019.18 1019.06 1019.02 1018.86 1018.66 1018.50 1018.54 1018.62 1018.74 1018.86 1019.02 1019.18 1019.30 1019.46 1019.54 1019.54
1025.78 1025.54 1025.34 1025.18 1024.94 1024.62 1024.46 1024.30 1024.14 1024.10 1024.06 1023.98 1023.86 1023.70 1023.54 1023.46 1023.42 1023.26 1023.10 1022.98 1022.86 1022.78 1022.74 1022.62 1022.50 1022.38 1022.18 1021.94 1021.78 1021.46 1021.14 1020.70 1020.38 1020.34 1020.06 1019.82 1019.54 1019.42 1019.26 1019.10 1018.86 1018.74 1018.62 1018.62 1018.74 1018.82 1018.94 1019.14 1019.34 1019.50 1019.54 1019.50
1026.14 1025.94 1025.70 1025.62 1025.38 1025.10 1024.90 1024.70 1024.46 1024.42 1024.26 1024.14 1024.10 1024.02 1023.82 1023.66 1023.50 1023.42 1023.26 1023.22 1023.02 1022.90 1022.90 1022.82 1022.66 1022.54 1022.34 1022.14 1021.98 1021.82 1021.78 1021.38 1020.78 1020.62 1020.46 1020.18 1019.90 1019.78 1019.66 1019.50 1019.26 1018.98 1018.82 1018.74 1018.78 1018.90 1018.98 1019.14 1019.26 1019.38 1019.50 1019.50
1026.50 1026.30 1026.14 1025.94 1025.78 1025.50 1025.30 1025.14 1024.86 1024.66 1024.46 1024.34 1024.26 1024.22 1024.14 1023.94 1023.70 1023.54 1023.46 1023.34 1023.26 1023.18 1023.06 1023.02 1022.90 1022.78 1022.58 1022.34 1022.10 1022.02 1022.06 1021.70 1021.26 1021.06 1020.70 1020.46 1020.30 1020.18 1020.06 1019.98 1019.78 1019.54 1019.22 1018.94 1018.90 1019.02 1019.06 1019.14 1019.18 1019.26 1019.38 1019.42
1026.82 1026.62 1026.46 1026.34 1026.14 1025.86 1025.66 1025.50 1025.26 1025.02 1024.82 1024.62 1024.42 1024.30 1024.26 1024.22 1024.02 1023.78 1023.62 1023.50 1023.38 1023.30 1023.26 1023.18 1023.02 1022.86 1022.70 1022.58 1022.42 1022.26 1022.34 1022.10 1021.74 1021.58 1021.26 1020.90 1020.54 1020.50 1020.50 1020.42 1020.22 1019.98 1019.70 1019.22 1019.02 1019.02 1019.14 1019.14 1019.18 1019.26 1019.34 1019.34
1027.06 1026.90 1026.78 1026.62 1026.46 1026.22 1026.02 1025.86 1025.62 1025.42 1025.22 1024.90 1024.62 1024.46 1024.38 1024.38 1024.30 1024.10 1023.86 1023.70 1023.58 1023.54 1023.50 1023.38 1023.18 1022.94 1022.86 1022.74 1022.62 1022.42 1022.42 1022.38 1022.18 1022.14 1021.82 1021.38 1020.94 1020.78 1020.74 1020.70 1020.54 1020.30 1020.06 1019.78 1019.26 1019.10 1019.14 1019.18 1019.22 1019.30 1019.34 1019.34
1027.38 1027.22 1027.06 1026.90 1026.70 1026.46 1026.30 1026.14 1025.98 1025.78 1025.54 1025.18 1024.86 1024.62 1024.54 1024.58 1024.54 1024.26 1024.06 1023.94 1023.78 1023.70 1023.58 1023.46 1023.30 1023.22 1023.10 1022.86 1022.74 1022.66 1022.62 1022.42 1022.30 1022.30 1022.18 1021.90 1021.46 1021.10 1021.02 1020.98 1020.86 1020.58 1020.34 1020.14 1019.82 1019.30 1019.22 1019.26 1019.30 1019.26 1019.34 1019.42
1027.70 1027.54 1027.38 1027.22 1027.02 1026.78 1026.54 1026.42 1026.34 1026.10 1025.78 1025.42 1025.10 1024.86 1024.70 1024.70 1024.70 1024.54 1024.30 1024.14 1024.02 1023.86 1023.70 1023.62 1023.46 1023.34 1023.22 1023.06 1022.94 1022.82 1022.74 1022.62 1022.42 1022.34 1022.38 1022.34 1021.86 1021.50 1021.18 1021.14 1021.02 1020.78 1020.42 1020.26 1020.02 1019.74 1019.34 1019.26 1019.18 1019.18 1019.34 1019.46
1028.02 1027.82 1027.62 1027.42 1027.26 1027.10 1026.82 1026.70 1026.62 1026.38 1026.02 1025.66 1025.38 1025.10 1024.98 1024.94 1024.94 1024.82 1024.66 1024.50 1024.30 1024.06 1023.94 1023.82 1023.74 1023.58 1023.34 1023.14 1023.06 1022.94 1022.86 1022.74 1022.54 1022.38 1022.34 1022.22 1022.26 1021.90 1021.38 1021.38 1021.26 1020.98 1020.70 1020.34 1020.14 1019.94 1019.74 1019.50 1019.18 1019.18 1019.30 1019.34
1028.26 1028.06 1027.86 1027.66 1027.50 1027.34 1027.02 1026.98 1026.86 1026.58 1026.18 1025.90 1025.66 1025.38 1025.26 1025.22 1025.22 1025.10 1024.98 1024.86 1024.62 1024.42 1024.26 1024.10 1023.98 1023.70 1023.46 1023.22 1023.10 1022.98 1022.94 1022.82 1022.66 1022.54 1022.46 1022.42 1022.34 1022.26 1021.90 1021.74 1021.62 1021.30 1020.94 1020.58 1020.22 1020.02 1019.94 1019.86 1019.66 1019.38 1019.30 1019.38
1028.38 1028.14 1028.02 1027.86 1027.74 1027.50 1027.26 1027.26 1027.10 1026.78 1026.46 1026.14 1025.82 1025.62 1025.54 1025.46 1025.42 1025.38 1025.26 1025.10 1024.94 1024.78 1024.62 1024.46 1024.22 1023.94 1023.66 1023.46 1023.34 1023.18 1023.02 1022.82 1022.66 1022.62 1022.54 1022.50 1022.46 1022.38 1022.26 1022.18 1021.98 1021.74 1021.30 1020.78 1020.34 1020.06 1020.02 1020.06 1020.02 1019.94 1019.78 1019.58
1028.50 1028.34 1028.22 1028.06 1027.90 1027.70 1027.50 1027.42 1027.26 1027.02 1026.70 1026.34 1026.10 1025.90 1025.78 1025.70 1025.62 1025.50 1025.38 1025.26 1025.14 1025.02 1024.94 1024.78 1024.54 1024.26 1024.02 1023.78 1023.50 1023.30 1023.06 1022.82 1022.66 1022.62 1022.58 1022.58 1022.62 1022.62 1022.42 1022.30 1022.26 1022.06 1021.70 1021.06 1020.46 1020.26 1020.06 1020.10 1020.18 1020.14 1020.06 1019.94
1028.46 1028.38 1028.30 1028.18 1028.02 1027.86 1027.66 1027.54 1027.42 1027.22 1026.98 1026.70 1026.46 1026.26 1026.10 1025.94 1025.78 1025.66 1025.58 1025.46 1025.38 1025.30 1025.14 1024.98 1024.78 1024.58 1024.30 1023.98 1023.66 1023.42 1023.22 1023.02 1022.82 1022.70 1022.58 1022.58 1022.62 1022.58 1022.54 1022.42 1022.30 1022.18 1021.94 1021.42 1020.82 1020.34 1020.18 1020.14 1020.18 1020.26 1020.22 1020.14
1028.38 1028.26 1028.22 1028.14 1028.02 1027.86 1027.74 1027.62 1027.50 1027.42 1027.14 1026.94 1026.78 1026.58 1026.42 1026.22 1026.02 1025.90 1025.86 1025.78 1025.70 1025.58 1025.42 1025.14 1024.90 1024.74 1024.54 1024.22 1023.90 1023.62 1023.38 1023.22 1023.06 1022.86 1022.70 1022.54 1022.42 1022.42 1022.38 1022.38 1022.38 1022.30 1022.02 1021.62 1021.14 1020.74 1020.42 1020.18 1020.10 1020.14 1020.18 1020.26
1028.26 1028.18 1028.10 1028.06 1027.94 1027.82 1027.70 1027.62 1027.50 1027.42 1027.26 1027.14 1027.02 1026.82 1026.66 1026.46 1026.30 1026.18 1026.14 1026.10 1025.98 1025.78 1025.58 1025.30 1025.02 1024.78 1024.66 1024.42 1024.14 1023.90 1023.66 1023.46 1023.30 1023.06 1022.74 1022.58 1022.42 1022.38 1022.30 1022.30 1022.34 1022.30 1022.06 1021.70 1021.26 1020.98 1020.70 1020.42 1020.14 1020.06 1020.10 1020.18
1028.10 1028.02 1027.98 1027.94 1027.90 1027.82 1027.66 1027.54 1027.46 1027.34 1027.22 1027.14 1027.06 1026.94 1026.82 1026.66 1026.50 1026.38 1026.34 1026.30 1026.14 1025.94 1025.74 1025.50 1025.22 1024.98 1024.70 1024.50 1024.34 1024.18 1023.98 1023.74 1023.50 1023.30 1023.02 1022.70 1022.50 1022.30 1022.26 1022.26 1022.18 1022.06 1021.94 1021.74 1021.46 1021.18 1020.98 1020.78 1020.46 1020.18 1020.10 1020.06
1027.90 1027.82 1027.82 1027.82 1027.74 1027.70 1027.58 1027.42 1027.34 1027.26 1027.14 1027.10 1027.10 1027.06 1026.90 1026.74 1026.62 1026.58 1026.54 1026.42 1026.22 1026.02 1025.82 1025.62 1025.38 1025.10 1024.82 1024.62 1024.46 1024.34 1024.14 1023.94 1023.74 1023.46 1023.18 1022.86 1022.58 1022.34 1022.14 1022.06 1022.02 1022.06 1021.94 1021.70 1021.46 1021.26 1021.14 1020.94 1020.62 1020.34 1020.18 1020.14
1027.50 1027.42 1027.46 1027.46 1027.46 1027.46 1027.38 1027.30 1027.18 1027.06 1026.98 1026.90 1026.94 1026.98 1026.90 1026.82 1026.74 1026.70 1026.66 1026.50 1026.30 1026.06 1025.90 1025.70 1025.50 1025.22 1025.02 1024.78 1024.58 1024.38 1024.22 1024.06 1023.82 1023.54 1023.26 1023.02 1022.78 1022.50 1022.14 1021.90 1021.78 1021.86 1021.82 1021.66 1021.42 1021.22 1021.06 1020.94 1020.70 1020.38 1020.22 1020.14
1027.10 1027.06 1026.94 1026.94 1026.90 1026.90 1026.94 1026.94 1026.98 1026.94 1026.90 1026.82 1026.78 1026.78 1026.78 1026.74 1026.74 1026.74 1026.74 1026.58 1026.38 1026.18 1025.94 1025.74 1025.58 1025.30 1025.10 1024.90 1024.74 1024.54 1024.34 1024.14 1023.90 1023.66 1023.38 1023.14 1022.86 1022.58 1022.34 1022.06 1021.82 1021.58 1021.46 1021.42 1021.30 1021.14 1020.98 1020.78 1020.62 1020.38 1020.22 1020.14
1027.10 1026.94 1026.86 1026.66 1026.50 1026.54 1026.54 1026.54 1026.58 1026.62 1026.70 1026.78 1026.74 1026.74 1026.66 1026.66 1026.66 1026.70 1026.70 1026.62 1026.42 1026.30 1026.14 1025.90 1025.62 1025.42 1025.22 1025.10 1024.94 1024.78 1024.58 1024.38 1024.06 1023.78 1023.50 1023.26 1022.94 1022.62 1022.34 1022.10 1021.82 1021.58 1021.34 1021.18 1021.06 1020.98 1020.86 1020.66 1020.50 1020.34 1020.18 1020.10
1027.74 1027.46 1027.18 1026.86 1026.58 1026.58 1026.58 1026.58 1026.58 1026.58 1026.62 1026.66 1026.62 1026.58 1026.62 1026.66 1026.70 1026.66 1026.62 1026.54 1026.42 1026.38 1026.26 1026.06 1025.78 1025.62 1025.50 1025.42 1025.30 1025.14 1024.90 1024.66 1024.34 1024.02 1023.66 1023.34 1023.02 1022.74 1022.42 1022.10 1021.86 1021.62 1021.46 1021.26 1021.02 1020.78 1020.58 1020.46 1020.30 1020.14 1020.02 1019.90
1028.30 1028.02 1027.54 1027.14 1026.74 1026.62 1026.58 1026.70 1026.70 1026.74 1026.74 1026.74 1026.66 1026.54 1026.54 1026.54 1026.58 1026.50 1026.34 1026.22 1026.18 1026.26 1026.22 1026.06 1025.98 1025.94 1025.90 1025.86 1025.70 1025.50 1025.22 1024.86 1024.58 1024.22 1023.82 1023.46 1023.06 1022.74 1022.50 1022.26 1022.02 1021.78 1021.50 1021.30 1021.06 1020.82 1020.62 1020.30 1020.06 1019.82 1019.70 1019.62
1028.62 1028.62 1028.58 1028.14 1027.18 1026.66 1026.62 1026.78 1026.90 1026.90 1026.86 1026.82 1026.70 1026.66 1026.62 1026.58 1026.46 1026.38 1026.22 1026.10 1026.10 1026.10 1026.18 1026.14 1026.14 1026.18 1026.18 1026.10 1025.98 1025.70 1025.34 1024.98 1024.66 1024.30 1024.02 1023.62 1023.22 1022.82 1022.62 1022.46 1022.10 1021.78 1021.66 1021.46 1021.34 1021.14 1020.74 1020.10 1019.74 1019.50 1019.38 1019.34
1029.50 1029.14 1028.78 1028.54 1028.14 1027.46 1026.98 1026.86 1026.90 1026.90 1026.82 1026.82 1026.82 1026.74 1026.70 1026.62 1026.54 1026.46 1026.38 1026.22 1026.14 1026.14 1026.14 1026.14 1026.10 1026.18 1026.18 1026.14 1026.02 1025.74 1025.46 1025.14 1024.78 1024.50 1024.14 1023.82 1023.46 1022.98 1022.54 1022.30 1022.02 1021.82 1021.70 1021.70 1021.14 1020.98 1020.74 1020.58 1019.90 1019.02 1019.10 1019.18
1029.82 1029.62 1029.18 1028.74 1028.34 1028.02 1027.82 1027.66 1027.34 1027.18 1027.06 1026.98 1026.90 1026.86 1026.78 1026.74 1026.70 1026.58 1026.54 1026.50 1026.46 1026.34 1026.22 1026.14 1026.10 1026.10 1026.10 1026.10 1025.98 1025.70 1025.30 1024.94 1024.66 1024.42 1024.14 1023.78 1023.38 1023.02 1022.66 1022.34 1021.98 1021.66 1021.38 1021.26 1021.30 1021.46 1021.10 1020.50 1019.82 1019.82 1018.90 1018.78
1030.34 1030.06 1029.66 1029.22 1028.70 1028.34 1028.10 1027.90 1027.82 1027.70 1027.54 1027.38 1027.18 1027.02 1026.98 1026.94 1026.90 1026.86 1026.74 1026.66 1026.58 1026.46 1026.30 1026.18 1026.10 1025.98 1025.90 1025.78 1025.66 1025.38 1025.02 1024.78 1024.58 1024.34 1024.06 1023.66 1023.26 1022.86 1022.58 1022.22 1021.90 1021.54 1021.26 1021.06 1020.86 1020.98 1020.50 1020.74 1020.42 1020.30 1018.94 1019.06
1030.94 1030.78 1030.46 1029.98 1029.54 1029.14 1028.78 1028.50 1028.34 1028.18 1027.86 1027.66 1027.62 1027.50 1027.30 1027.26 1027.22 1027.06 1026.94 1026.82 1026.70 1026.50 1026.30 1026.10 1025.98 1025.82 1025.62 1025.50 1025.30 1025.10 1024.82 1024.58 1024.42 1024.22 1023.94 1023.62 1023.22 1022.74 1022.34 1022.02 1021.82 1021.58 1021.14 1020.82 1020.74 1020.50 1020.38 1020.10 1020.02 1019.70 1020.02 1019.62
1031.22 1031.10 1030.86 1030.50 1030.02 1029.54 1029.22 1028.94 1028.58 1028.34 1028.10 1027.94 1027.78 1027.70 1027.62 1027.42 1027.34 1027.22 1027.06 1026.82 1026.66 1026.46 1026.30 1026.10 1025.94 1025.78 1025.70 1025.66 1025.58 1025.34 1025.18 1025.06 1024.78 1024.34 1023.94 1023.58 1023.18 1022.66 1022.22 1021.86 1021.66 1021.46 1021.30 1021.02 1020.58 1020.42 1020.18 1019.90 1019.86 1020.06 1020.10 1020.98
Wind_Speed
22 22 23 23 23 24 24 24 24 25 24 24 22 22 21 20 19 19 20 20 22 23 23 24 25 26 26 24 23 23 23 22 16 13 12 12 11 8 3 2 5 9 12 14 12 10 8 8 7 7 7 3
21 21 22 21 21 22 23 23 23 22 23 23 23 21 20 19 18 19 19 19 19 20 21 22 23 24 25 25 24 23 24 24 23 20 17 16 15 14 8 1 5 8 11 14 12 8 8 8 6 6 5 3
13 22 21 22 20 20 22 21 21 21 21 21 21 21 20 19 18 18 18 19 19 18 20 21 21 24 24 23 23 22 21 22 23 24 21 18 16 15 14 8 4 8 9 13 13 12 9 7 5 3 3 4
12 16 22 22 22 19 21 20 20 20 20 20 20 20 19 18 14 13 13 19 14 17 17 17 18 21 22 22 22 23 22 20 21 20 22 21 19 18 16 14 7 4 10 14 13 11 8 7 5 1 2 3
11 13 19 15 20 20 22 20 20 20 17 17 15 17 16 13 10 9 8 10 10 13 11 14 15 15 17 18 20 21 24 22 19 19 20 20 21 20 19 17 11 3 7 13 13 11 8 7 4 2 2 3
9 9 13 12 11 10 13 14 14 11 10 10 7 14 10 7 7 8 7 8 11 8 9 10 16 15 15 17 18 17 20 21 20 20 18 19 21 21 20 17 9 3 3 7 10 6 9 5 4 3 3 3
8 10 9 10 11 9 13 12 10 8 10 7 7 7 8 9 7 6 6 8 11 10 14 12 14 16 16 15 17 16 18 18 20 21 19 18 17 19 18 11 8 8 6 1 6 5 5 3 3 3 3 3
8 8 8 8 8 9 9 10 9 9 10 7 7 5 6 7 8 8 5 8 12 10 7 8 11 14 14 14 13 16 10 15 15 20 20 18 15 10 8 8 7 7 7 6 3 4 4 3 3 3 3 4
8 8 7 8 7 8 7 8 8 8 9 8 7 5 5 7 8 7 7 6 5 7 6 6 6 7 6 6 7 11 6 7 8 9 10 10 9 7 5 8 7 7 7 8 2 3 2 3 2 3 3 3
8 8 7 8 8 8 7 7 8 8 8 8 8 5 5 6 7 7 6 7 6 6 6 7 7 7 6 6 6 7 6 6 6 6 7 9 9 8 8 6 5 7 5 6 7 3 2 0 4 4 3 1
7 7 7 7 8 8 6 6 8 8 8 8 8 7 6 6 7 8 7 8 8 7 6 7 7 7 7 5 5 6 5 6 5 5 6 8 9 8 7 8 6 5 7 5 6 6 4 3 1 3 3 2
7 7 8 8 8 7 8 7 7 7 7 7 8 7 5 7 6 7 8 8 8 8 7 7 7 7 6 5 5 4 5 5 5 5 6 6 8 11 8 9 9 7 6 6 5 5 5 6 4 2 0 3
6 6 7 7 6 6 8 6 7 7 7 6 7 7 6 7 7 7 7 8 8 8 8 8 8 8 6 6 7 6 4 4 4 4 4 6 6 7 8 8 8 8 8 6 4 4 4 5 6 3 2 1
5 5 6 6 7 6 6 5 7 7 6 6 6 6 7 7 6 6 6 6 6 7 8 8 8 8 7 7 6 7 6 3 2 3 4 4 6 6 6 7 8 8 8 8 6 4 3 4 5 5 5 5
6 6 6 6 6 6 5 6 6 6 7 6 6 6 7 6 6 6 5 6 6 6 7 8 8 8 8 7 6 6 6 4 2 1 3 4 3 5 6 6 6 7 8 8 7 1 2 3 4 5 5 4
5 4 5 5 5 5 5 6 5 6 7 6 7 7 7 6 6 6 6 7 7 8 8 7 7 7 8 8 7 6 6 6 6 6 4 3 4 4 4 5 6 6 7 7 8 5 1 1 2 3 4 5
4 3 3 4 4 4 5 5 5 6 6 5 6 6 7 7 7 6 6 7 8 8 8 8 7 6 7 8 8 7 7 8 7 7 6 4 3 4 4 4 5 5 6 7 7 6 6 2 1 1 1 3
5 4 3 4 4 4 5 4 4 5 5 5 5 5 6 6 6 6 7 8 8 7 7 8 7 6 6 7 7 8 8 7 6 7 7 5 4 4 5 5 4 5 6 6 6 6 6 6 4 2 0 1
5 4 3 3 4 4 4 4 4 4 4 4 4 5 5 5 5 5 6 7 6 7 7 7 8 8 6 6 8 8 7 6 6 7 8 6 6 6 5 5 5 6 6 5 5 6 6 6 6 2 4 1
4 4 3 3 4 4 4 5 3 5 4 2 4 5 5 5 5 5 6 6 7 5 6 6 7 7 8 7 6 6 7 7 7 6 6 7 7 6 5 5 5 5 6 6 7 5 5 6 6 4 2 3
4 4 3 4 3 4 4 4 6 3 4 2 2 3 4 5 6 6 6 8 7 6 5 6 7 7 8 9 7 6 6 7 7 6 6 6 7 7 7 6 5 5 6 6 7 7 6 5 6 5 3 3
5 5 6 6 6 4 5 3 3 4 4 3 2 3 3 3 4 6 8 8 7 6 7 6 6 7 8 8 8 7 6 6 7 7 7 7 8 8 8 6 5 5 5 5 5 6 6 6 5 5 4 4
9 6 4 4 3 4 4 3 5 4 2 3 3 3 3 3 3 5 7 7 6 6 7 7 7 7 7 7 8 8 8 7 7 7 7 7 7 7 7 7 7 7 6 5 4 5 6 6 6 6 5 4
9 9 9 8 5 5 5 4 4 3 3 4 4 2 2 4 5 4 5 5 5 6 7 7 6 6 7 7 8 9 9 9 8 8 8 8 7 7 6 6 7 7 7 6 7 8 8 6 6 7 6 7
9 10 10 9 6 5 3 4 5 6 6 5 5 5 4 4 5 6 7 5 3 3 7 6 6 8 8 8 9 9 10 10 11 11 9 8 7 7 8 7 6 6 6 7 7 6 7 8 6 9 8 9
10 9 10 12 11 5 4 4 4 5 5 5 6 6 7 6 4 5 5 4 4 6 6 5 6 7 8 8 7 9 10 11 12 12 11 9 9 6 7 6 5 7 6 5 6 6 5 7 6 8 9 9
10 10 10 10 11 12 8 5 5 6 5 6 7 7 7 7 8 8 6 7 6 5 5 6 6 7 8 8 8 10 10 10 11 10 11 10 9 8 5 6 7 7 7 7 5 4 6 6 6 3 4 5
12 13 13 12 10 10 9 9 9 9 8 7 7 7 7 7 8 9 9 8 8 8 7 7 7 7 7 8 9 10 11 9 10 9 10 11 11 9 8 5 6 6 8 7 5 6 5 4 4 7 5 7
14 13 12 12 12 8 8 7 7 7 7 8 8 9 8 8 8 9 9 10 10 10 10 9 9 7 7 8 9 10 9 8 8 9 9 11 10 9 7 8 5 6 7 7 6 5 4 2 4 4 4 3
13 13 12 12 11 10 9 9 7 8 9 9 9 9 10 10 10 11 10 10 11 10 10 8 8 7 7 7 8 7 6 7 7 8 9 11 12 12 10 9 8 6 5 8 7 7 7 5 3 1 3 2
11 12 12 13 12 10 9 9 7 7 9 9 8 8 10 10 9 9 11 10 9 8 9 9 9 8 4 6 6 7 7 8 10 10 10 10 11 11 10 9 9 9 7 6 8 6 6 8 8 3 3 1
Wind_Direction
23 22 22 20 21 22 21 22 25 26 26 24 23 26 32 34 31 35 36 27 26 25 22 23 19 18 18 17 19 16 15 21 33 38 43 37 27 4 24 259 205 178 179 188 190 182 186 186 197 227 249 283
16 20 20 20 20 20 19 19 20 22 22 21 20 21 23 28 28 27 30 30 31 24 20 21 22 16 15 15 16 12 11 11 12 21 30 34 26 17 8 22 185 184 185 188 188 190 183 185 199 229 263 288
4 13 17 16 16 19 18 17 18 19 18 16 16 15 18 22 21 24 23 26 23 27 23 17 18 20 14 12 11 15 11 9 8 8 16 22 21 12 4 358 189 188 198 195 189 195 184 180 187 225 290 299
7 7 14 13 10 14 17 14 16 17 17 14 11 11 14 17 17 15 17 19 22 20 24 19 22 18 17 11 6 8 8 10 12 2 9 10 13 10 3 354 344 214 207 198 195 196 183 168 148 186 267 278
10 5 13 9 7 4 15 9 11 13 13 15 10 10 6 10 12 5 9 11 11 16 13 11 25 21 23 13 10 8 4 4 7 5 5 3 7 7 1 357 340 286 214 198 196 194 166 152 149 191 225 244
9 2 9 8 2 351 13 0 6 11 5 12 15 5 360 3 8 3 3 7 8 9 9 4 8 12 19 18 14 12 6 0 359 2 6 2 2 2 360 356 354 323 237 226 209 195 150 149 162 194 226 239
10 4 7 5 2 349 10 353 357 6 1 0 6 13 5 358 356 0 1 8 6 1 4 4 4 6 4 11 12 9 5 4 358 356 357 3 3 356 359 356 352 348 338 296 172 160 165 167 179 196 224 254
7 5 5 3 1 349 6 351 356 356 355 354 350 14 14 3 353 347 357 6 4 1 0 354 358 360 360 1 1 7 6 3 351 355 347 348 356 356 360 346 350 347 343 312 178 174 178 178 172 182 232 252
5 4 3 1 1 350 3 350 356 354 347 343 342 359 18 11 352 345 351 355 357 2 354 352 352 354 353 355 352 357 5 1 352 353 338 339 346 354 354 337 343 350 345 340 316 162 166 178 190 196 217 246
1 0 3 358 356 352 358 352 359 346 345 335 336 356 15 16 351 344 353 348 349 1 353 354 350 351 345 348 349 350 351 350 358 350 342 330 344 343 341 328 332 340 346 337 336 326 349 201 215 176 174 236
1 358 0 356 353 352 349 3 353 345 334 332 335 350 4 15 356 348 350 349 347 349 355 348 350 346 342 338 343 342 340 338 342 1 359 339 337 334 335 332 326 336 335 344 337 335 339 322 192 132 153 164
0 354 356 353 354 345 348 3 347 336 327 333 339 340 6 13 357 350 349 347 344 346 349 344 347 336 329 331 331 325 328 320 336 358 352 352 345 331 338 332 326 334 330 333 343 343 343 343 347 39 99 158
353 346 351 347 347 342 348 358 344 327 327 336 335 334 10 5 357 352 347 344 343 342 344 346 341 331 327 339 335 323 299 316 342 357 347 342 343 326 336 331 324 333 326 319 330 349 353 348 345 353 307 268
338 344 341 344 342 336 346 352 333 331 328 327 333 342 1 359 354 348 343 338 339 346 342 344 334 329 333 339 328 321 308 283 17 335 345 335 326 327 326 321 318 326 317 314 317 355 2 5 345 340 354 336
335 335 340 335 340 330 339 343 334 330 326 326 337 352 353 350 347 341 338 340 343 343 343 334 331 331 331 325 317 313 320 320 324 308 312 306 290 310 312 311 312 321 315 308 312 312 34 7 8 342 335 331
322 327 322 328 320 322 329 336 329 336 327 335 345 346 348 344 344 346 347 350 350 346 337 331 327 328 325 318 320 327 319 331 330 314 275 261 267 255 274 297 310 306 308 313 312 316 344 76 13 326 324 327
305 309 311 311 310 309 318 320 330 325 325 339 341 339 343 342 349 353 354 353 350 341 332 323 320 324 318 319 318 323 334 339 336 317 294 262 264 279 276 276 294 300 307 307 306 326 331 315 260 246 283 300
304 302 310 310 310 308 310 308 309 315 310 335 331 334 340 339 346 359 358 352 339 332 323 320 319 317 318 308 325 332 331 328 317 306 307 300 275 260 265 276 264 285 293 298 306 321 316 325 322 328 292 260
302 297 291 300 301 304 291 297 297 294 296 317 324 331 322 330 342 355 354 337 329 323 326 321 320 316 309 319 329 324 317 317 318 315 309 304 294 268 244 236 254 275 279 279 296 303 305 305 305 301 290 261
282 282 280 284 292 296 297 290 287 282 294 302 329 323 319 323 338 347 336 330 320 318 315 314 312 315 315 317 309 313 313 314 305 296 296 297 294 292 272 246 247 238 256 271 279 267 279 288 288 283 288 283
260 245 249 258 262 268 272 281 271 266 263 263 272 292 312 322 331 333 329 325 316 308 313 312 309 310 314 314 312 302 303 304 301 299 301 302 304 298 286 271 247 233 229 243 253 275 272 266 276 278 250 260
248 235 242 230 213 227 233 242 269 288 296 291 276 289 295 297 322 327 328 316 313 319 316 310 308 305 308 309 313 312 308 302 302 308 305 297 293 294 294 291 283 272 250 235 244 245 253 263 275 278 277 247
328 315 293 283 267 247 254 236 230 224 285 294 294 292 290 313 332 333 321 314 320 324 318 314 311 315 319 323 322 322 321 312 302 298 297 293 290 287 289 287 288 284 287 281 263 242 237 239 248 252 253 265
335 331 320 311 313 319 317 315 325 332 312 299 290 278 346 340 322 313 297 301 317 324 318 311 313 320 328 332 329 323 318 313 306 297 291 290 290 294 295 293 286 286 288 285 280 281 269 248 237 240 240 241
335 326 319 309 302 296 305 317 318 320 316 310 308 319 331 301 286 272 253 252 258 308 310 315 332 338 333 325 320 315 308 304 301 301 296 291 284 287 292 291 295 293 280 275 273 273 274 272 249 240 234 239
335 345 342 335 317 307 321 332 324 311 316 311 313 315 310 301 286 291 301 312 330 326 308 316 326 320 314 311 303 297 296 294 295 297 297 296 291 279 278 279 282 280 290 279 261 274 296 269 265 242 236 236
350 340 341 341 342 341 334 327 308 300 308 316 318 317 315 313 315 320 323 325 324 311 310 310 313 310 304 299 299 296 289 284 282 284 287 287 284 284 267 265 264 265 252 260 261 265 260 277 287 302 249 257
354 341 336 333 333 338 342 335 333 331 329 323 315 307 308 320 321 323 328 329 327 321 310 305 297 290 292 295 292 285 281 272 273 273 278 280 277 271 268 259 265 255 252 239 239 275 236 244 269 289 283 241
351 343 337 334 328 329 329 333 330 328 320 316 317 319 323 318 325 325 322 320 316 313 308 303 293 279 278 284 281 274 272 278 280 282 279 278 275 268 259 260 253 259 265 261 234 210 266 298 263 230 262 14
347 340 334 328 326 326 327 319 320 315 316 318 319 315 318 320 318 315 310 307 300 295 290 288 293 293 284 278 278 279 283 283 280 275 273 273 274 275 269 262 263 265 263 265 259 247 226 196 190 272 302 22
341 333 330 323 317 311 308 307 303 308 314 312 310 311 308 308 308 306 304 304 305 306 307 308 308 305 327 328 330 330 333 324 311 297 287 285 281 274 269 260 256 248 253 283 275 263 252 251 254 218 247 181